Regional Weather Roundup
Issued by NWS

Home | Current Version | Previous Version | Text Only | Print | Product List | Glossary Off
Versions: 1 2 3 4 5 6 7 8 9 10 11 12 13 14 15 16 17 18 19 20 21 22 23 24 25 26 27 28 29 30 31 32 33 34 35 36 37 38 39 40 41 42 43 44 45 46 47 48 49 50

000
ASUS43 KMKX 261100
RWRWI

WISCONSIN REGIONAL WEATHER ROUNDUP
NATIONAL WEATHER SERVICE MILWAUKEE/SULLIVAN WI
600 AM CDT THU MAY 26 2016

NOTE: "FAIR" INDICATES FEW OR NO CLOUDS BELOW 12,000 FEET WITH NO
SIGNIFICANT WEATHER AND/OR OBSTRUCTIONS TO VISIBILITY.

WIZ001-002-006>008-014>016-023>028-261200-
NORTHWEST WISCONSIN

CITY           SKY/WX    TMP DP  RH WIND       PRES   REMARKS
SUPERIOR ARPT  FOG       42  42 100 NE7       29.81F VSB 1/4
ASHLAND        FOG       50  50 100 NE3       29.82F VSB 1/2
HAYWARD        CLOUDY    55  54  96 SW3       29.81R
SIREN          FOG       57  56  97 CALM      29.78R VSB 3/4
CUMBERLAND     FOG       57  55  94 SE6       29.80R VSB 1/4
RICE LAKE      FOG       59  58  95 E5        29.81R VSB 1/4
CHETEK         FOG       60  60 100 SE3       29.80R VSB 1
LADYSMITH      FOG       60  59  97 E5        29.83R VSB 1/2
EAU CLAIRE     LGT RAIN  63  60  90 W8G17     29.78S
MENOMONIE      RAIN      62  62  99 S14       29.79F
NEW RICHMOND   LGT RAIN  63  55  76 W5        29.75R
OSCEOLA        LGT RAIN  63  63 100 NW3       29.79R
$$

WIZ003>005-009-010-017-018-261200-
NORTH CENTRAL WISCONSIN

CITY           SKY/WX    TMP DP  RH WIND       PRES   REMARKS
MANITOWISH WTR NOT AVBL
ARBOR VITAE    CLOUDY    62  61  96 CALM      29.82S
WOODRUFF       CLOUDY    62  61  96 CALM      29.82S
RHINELANDER    FOG       61  60  97 SW3       29.85R VSB 1/4
EAGLE RIVER      N/A     60  60  97 W6        29.83S
LAND O LAKES   CLOUDY    60  59  99 CALM      29.83F
PHILLIPS       FOG       59  59 100 CALM      29.82R VSB 1/4
TOMAHAWK       FOG       61  60  96 CALM      29.83S VSB 1/4
MEDFORD        FOG       60  60 100 SE5       29.83R VSB<1/4
MERRILL        FOG       63  63 100 CALM      29.84S VSB 1
$$

WIZ029-030-035-036-043>047-261200-
CENTRAL WISCONSIN

CITY           SKY/WX    TMP DP  RH WIND       PRES   REMARKS
WAUSAU         FOG       63  32  31 CALM      29.83R VSB 1
MOSINEE        FOG       61  61 100 CALM      29.85R VSB 1/8
MARSHFIELD     FOG       60  58  92 NE5       29.81S VSB 1/4
STEVENS POINT  FOG       58  58 100 CALM      29.84R VSB<1/4
WAUPACA        FOG       62  61  97 CALM      29.83R VSB<1/4
WAUTOMA        NOT AVBL
WISC RAPIDS    FOG       59  57  93 CALM      29.83R VSB 1/4
CAMP DOUGLAS   CLOUDY    59  57  94 S6        29.81S FOG
$$

WIZ011>013-019>022-031-037>040-048>050-261200-
NORTHEAST WISCONSIN

CITY           SKY/WX    TMP DP  RH WIND       PRES   REMARKS
ANTIGO         FOG       61  61 100 CALM      29.85R VSB 1/4
SHAWANO        FOG       63  62  96 CALM      29.84R VSB 1/4
OCONTO         CLOUDY    60  60 100 CALM      29.83S VSB<1/4
STURGEON BAY   NOT AVBL
GREEN BAY      CLOUDY    62  60  93 NE3       29.84R FOG
MANITOWOC      NOT AVBL
APPLETON       FOG       61  61 100 CALM      29.82S VSB 1/8
CLINTONVILLE   FOG       61  61 100 CALM      29.84R VSB<1/4
OSHKOSH        CLOUDY    63  62  97 SW9       29.83R FOG
$$

WIZ032>034-041-042-053>061-261200-
SOUTHWEST WISCONSIN

CITY           SKY/WX    TMP DP  RH WIND       PRES   REMARKS
LA CROSSE      RAIN      62  59  90 NW12      29.86R FOG
SPARTA         CLOUDY    55  55 100 CALM      29.80F
VIROQUA        CLOUDY    64  61  90 SE6       29.82S
BOSCOBEL       LGT RAIN  62  61  96 CALM      29.84R
PRAIRIE DU CHI LGT RAIN  68  60  75 SW29G40   29.85R
PLATTEVILLE    CLOUDY    68  63  83 S10       29.86S
$$

WIZ056-057-062-063-064-067-068-261200-
SOUTH CENTRAL WISCONSIN

CITY           SKY/WX    TMP DP  RH WIND       PRES   REMARKS
REEDSBURG      CLOUDY    61  61  99 CALM      29.83S
BARABOO/DELLS  CLOUDY    61  59  92 S7        29.84S
LONE ROCK      CLOUDY    62  59  90 E8        29.84F THUNDER
MINERAL POINT  CLOUDY    64  61  88 S7        29.87R
MADISON        CLOUDY    65  63  93 S3        29.87R
MIDDLETON      CLOUDY    66  62  87 S5        29.86R
WATERTOWN      CLOUDY    62  62 100 CALM      29.86R FOG
MONROE         CLOUDY    64  63  94 S10       29.88R
JANESVILLE     CLOUDY    66  64  94 S5        29.88R
$$

WIZ051-052-058>065-066-070>072-261200-
SOUTHEAST WISCONSIN

CITY           SKY/WX    TMP DP  RH WIND       PRES   REMARKS
MILWAUKEE      CLOUDY    64  61  90 S8        29.88R FOG
WAUKESHA         N/A     63  63 100 S6        29.89R FOG
MILWAUKEE/TIMM CLOUDY    63  59  88 SW3       29.88R FOG
RACINE         FOG       58  57  97 CALM      29.90R VSB<1/4
BURLINGTON     FOG       60  60 100 SW5       29.89R VSB 1
KENOSHA        PTCLDY    65  63  93 SW7       29.89R FOG
FOND DU LAC    CLOUDY    63  62  97 SW6       29.85R FOG
SHEBOYGAN      FOG       61  60  97 S6        29.85S VSB<1/4
WEST BEND      FOG       61  59  94 CALM      29.87R VSB<1/4
JUNEAU         CLOUDY    60  60  99 S3        29.88R FOG
$$

LSZ147-162-261200-
LAKE SUPERIOR

STATION/POSITION TIME  TEMP    WIND        PRES    WAVE
                       AIR SEA DIR/SP/G            HT/PER
                 (UTC) (F)     (DEG/KT/KT) (MB)    (FT/S)
W MID LAKE BUOY  0950   41 38   20/  6/  8 1011.1R   2/ 4
DEVILS ISLAND    1000   41      50/ 11/ 12 1010.3F
SAXON HARBOR     1040   49      CALM  /  2 1009.5S
$$

LMZ867-665-643>646-261200-
LAKE MICHIGAN

STATION/POSITION TIME  TEMP    WIND        PRES    WAVE
                       AIR SEA DIR/SP/G            HT/PER
                 (UTC) (F)     (DEG/KT/KT) (MB)    (FT/S)
CHAMBERS ISLAND  1040   56     160/  3/  5 1010.8S
N MID LAKE BUOY  0950   50 45  190/ 10/ 12 1010.6F   1
NORTHPORT PIER   1000   55     170/  7/ 12 1010.8S
SISTER BAY       0904   55     160/ 11/ 15   N/A
ALGOMA LAKESHORE 0902          200/  7/  8   N/A
KEWAUNEE LAKESHO 1000   49     180/  8/  9 1010.0F
SHEBOYGAN LAKESH 1000   49     160/ 11/ 12 1011.3F
PORT WASHINGTON  1040   55     190/  4/  6 1012.2R
S MID LAKE BUOY  0950   54 49  160/ 12/ 14 1011.6F   1/ 3
KENOSHA   LAKESH 1000   56     180/ 11/ 13 1011.2F
$$

TC  - TEMPERATURE IN CELSIUS
VSB - VISIBILITY IN STATUTE MILES
WCI - WIND CHILL INDEX
HX  - HEAT INDEX




USA.gov is the U.S. government's official web portal to all federal, state and local government web resources and services.